Location: Nelson
(41.2830°S, 173.2830°E)
Time: 18:18:03
(UTC+13:00)

Mayak - Pass Details

Date: 24 January 2019
Orbit: 582 x 604 km, 97.6° (Epoch: 20 February)

Event Time Altitude Azimuth Distance (km) Brightness Sun altitude
Exits shadow 22:46:23 22° 94° (E) 1,335 0.2 -17.5°
Maximum altitude 22:47:13 23° 112° (ESE) 1,286 0.3 -17.6°
Drops below altitude 10° 22:50:33 10° 164° (SSE) 1,948 1.8 -18.0°
Sets 22:53:04 0° 178° (S) 2,863 3.0 -18.3°
